When you browse on this site, cookies collect data to enhance your experience and personalize the content and advertising you see.
Visit our Privacy Policy to learn more. By continuing to use the site, you agree to this use of cookies and data.
  • In Lithuania
  • List of Countries
  • For 7 days
  • Water Temperature
  • Satellite Maps
  • Weather Map
  • Weather Widgets
  • user-avatar
    Login

    Hourly Weather Volosivka

    Today, 17 January, Thursday

    Time Temperature Precipitation Wind Pressure Humidity
    00:00 -9°C° 0 mm 3 mps 736 mmHg 91%
    01:00 -8°C° 0 mm 3 mps 736 mmHg 92%
    02:00 -8°C° 0 mm 4 mps 736 mmHg 92%
    03:00 -7°C° 0 mm 4 mps 736 mmHg 93%
    04:00 -4°C° 0 mm 4 mps 736 mmHg 94%
    05:00 -4°C° 0 mm 5 mps 736 mmHg 95%
    06:00 -4°C° 0 mm 5 mps 736 mmHg 95%
    07:00 -2°C° 0 mm 5 mps 735 mmHg 95%
    08:00 -2°C° 0 mm 5 mps 735 mmHg 95%
    09:00 -2°C° 0 mm 5 mps 735 mmHg 93%
    10:00 -3°C° 0 mm 6 mps 735 mmHg 91%
    11:00 -3°C° 0 mm 6 mps 735 mmHg 88%
    12:00 -3°C° 0 mm 6 mps 735 mmHg 88%
    13:00 -2°C° 0 mm 6 mps 734 mmHg 87%
    14:00 -2°C° 0 mm 6 mps 734 mmHg 87%
    15:00 -3°C° 0 mm 6 mps 734 mmHg 87%
    16:00 -2°C° 0 mm 5 mps 734 mmHg 87%
    17:00 -4°C° 0 mm 5 mps 734 mmHg 88%
    18:00 -4°C° 0 mm 5 mps 734 mmHg 88%
    19:00 -4°C° 0 mm 5 mps 734 mmHg 88%
    20:00 -3°C° 0 mm 4 mps 734 mmHg 89%
    21:00 -4°C° 0 mm 4 mps 734 mmHg 89%
    22:00 -4°C° 0 mm 4 mps 734 mmHg 89%
    23:00 -4°C° 0 mm 3 mps 734 mmHg 89%

    Tomorrow, 18 January, Friday

    Time Temperature Precipitation Wind Pressure Humidity
    00:00 -4°C° 0 mm 3 mps 734 mmHg 88%
    01:00 -4°C° 0 mm 3 mps 735 mmHg 88%
    02:00 -4°C° 0 mm 3 mps 735 mmHg 88%
    03:00 -4°C° 0 mm 4 mps 734 mmHg 87%
    04:00 -4°C° 0 mm 4 mps 734 mmHg 86%
    05:00 -4°C° 0 mm 4 mps 734 mmHg 85%
    06:00 -3°C° 0 mm 4 mps 734 mmHg 86%
    07:00 -2°C° 0 mm 4 mps 734 mmHg 87%
    08:00 -1°C° 0 mm 4 mps 734 mmHg 88%
    09:00 -1°C° 0 mm 4 mps 734 mmHg 89%
    10:00 -1°C° 0 mm 4 mps 734 mmHg 89%
    11:00 -1°C° 0 mm 4 mps 734 mmHg 90%
    12:00 -1°C° 0 mm 4 mps 734 mmHg 93%
    13:00 0°C° 0 mm 4 mps 734 mmHg 95%
    14:00 0°C° 0 mm 4 mps 734 mmHg 98%
    15:00 -1°C° 0 mm 4 mps 734 mmHg 97%
    16:00 -1°C° 0 mm 4 mps 735 mmHg 96%
    17:00 -1°C° 0 mm 4 mps 735 mmHg 95%
    18:00 -1°C° 0 mm 4 mps 736 mmHg 93%
    19:00 -2°C° 0 mm 4 mps 736 mmHg 91%
    20:00 -2°C° 0 mm 4 mps 737 mmHg 89%
    21:00 -3°C° 0 mm 4 mps 737 mmHg 88%
    22:00 -3°C° 0 mm 4 mps 738 mmHg 88%
    23:00 -4°C° 0 mm 4 mps 738 mmHg 88%

    Day after tomorrow, 19 January, Saturday

    Time Temperature Precipitation Wind Pressure Humidity
    00:00 -6°C° 0 mm 5 mps 739 mmHg 89%
    01:00 -6°C° 0 mm 5 mps 739 mmHg 90%
    02:00 -7°C° 0 mm 5 mps 740 mmHg 91%
    03:00 -8°C° 0 mm 5 mps 740 mmHg 91%
    04:00 -9°C° 0 mm 4 mps 741 mmHg 91%
    05:00 -9°C° 0 mm 3 mps 741 mmHg 91%
    06:00 -10°C° 0 mm 3 mps 742 mmHg 92%
    07:00 -10°C° 0 mm 3 mps 742 mmHg 93%
    08:00 -12°C° 0 mm 3 mps 743 mmHg 94%
    09:00 -9°C° 0 mm 3 mps 744 mmHg 94%
    10:00 -8°C° 0 mm 3 mps 744 mmHg 94%
    11:00 -7°C° 0 mm 3 mps 745 mmHg 93%
    12:00 -7°C° 0 mm 3 mps 745 mmHg 93%
    13:00 -6°C° 0 mm 3 mps 745 mmHg 93%
    14:00 -5°C° 0 mm 2 mps 745 mmHg 92%
    15:00 -6°C° 0 mm 2 mps 745 mmHg 92%
    16:00 -7°C° 0 mm 2 mps 745 mmHg 92%
    17:00 -8°C° 0 mm 2 mps 745 mmHg 93%
    18:00 -8°C° 0 mm 2 mps 745 mmHg 92%
    19:00 -9°C° 0 mm 2 mps 745 mmHg 92%
    20:00 -8°C° 0 mm 1 mps 746 mmHg 91%
    21:00 -10°C° 0 mm 2 mps 746 mmHg 90%
    22:00 -10°C° 0 mm 2 mps 746 mmHg 90%
    23:00 -10°C° 0 mm 2 mps 746 mmHg 89%

    20 January, Sunday

    Time Temperature Precipitation Wind Pressure Humidity
    00:00 -10°C° 0 mm 2 mps 746 mmHg 88%
    01:00 -12°C° 0 mm 2 mps 746 mmHg 88%
    02:00 -12°C° 0 mm 2 mps 746 mmHg 88%
    03:00 -12°C° 0 mm 2 mps 745 mmHg 88%
    04:00 -12°C° 0 mm 2 mps 745 mmHg 88%
    05:00 -13°C° 0 mm 2 mps 745 mmHg 89%
    06:00 -13°C° 0 mm 2 mps 745 mmHg 89%
    07:00 -12°C° 0 mm 2 mps 745 mmHg 89%
    08:00 -12°C° 0 mm 2 mps 745 mmHg 90%
    09:00 -12°C° 0 mm 3 mps 744 mmHg 89%
    10:00 -10°C° 0 mm 3 mps 744 mmHg 88%
    11:00 -9°C° 0 mm 3 mps 744 mmHg 88%
    12:00 -8°C° 0.2 mm 3 mps 744 mmHg 90%
    13:00 -8°C° 0.2 mm 3 mps 743 mmHg 92%
    14:00 -8°C° 0.2 mm 3 mps 743 mmHg 94%
    15:00 -8°C° 0.4 mm 3 mps 742 mmHg 94%
    16:00 -8°C° 0.4 mm 3 mps 742 mmHg 95%
    17:00 -8°C° 0.4 mm 3 mps 742 mmHg 95%
    18:00 -8°C° 0.4 mm 3 mps 741 mmHg 96%
    19:00 -8°C° 0.4 mm 3 mps 741 mmHg 96%
    20:00 -7°C° 0.4 mm 2 mps 741 mmHg 96%
    21:00 -7°C° 0.2 mm 2 mps 741 mmHg 96%
    22:00 -7°C° 0.2 mm 1 mps 741 mmHg 97%
    23:00 -7°C° 0.2 mm 1 mps 741 mmHg 97%

    21 January, Monday

    Time Temperature Precipitation Wind Pressure Humidity
    00:00 -7°C° 0 mm 1 mps 740 mmHg 97%
    01:00 -7°C° 0 mm 1 mps 740 mmHg 96%
    02:00 -7°C° 0 mm 1 mps 740 mmHg 96%
    03:00 -8°C° 0 mm 2 mps 740 mmHg 96%
    04:00 -8°C° 0 mm 2 mps 740 mmHg 96%
    05:00 -9°C° 0 mm 3 mps 740 mmHg 96%
    06:00 -9°C° 0 mm 3 mps 741 mmHg 96%
    07:00 -9°C° 0 mm 3 mps 741 mmHg 96%
    08:00 -8°C° 0 mm 3 mps 741 mmHg 96%
    09:00 -9°C° 0 mm 3 mps 741 mmHg 95%
    10:00 -9°C° 0 mm 3 mps 742 mmHg 94%
    11:00 -10°C° 0 mm 4 mps 742 mmHg 93%
    12:00 -9°C° 0 mm 4 mps 742 mmHg 93%
    13:00 -9°C° 0 mm 4 mps 742 mmHg 92%
    14:00 -9°C° 0 mm 4 mps 742 mmHg 92%
    15:00 -9°C° 0 mm 4 mps 743 mmHg 91%
    16:00 -8°C° 0 mm 4 mps 743 mmHg 90%
    17:00 -7°C° 0 mm 3 mps 744 mmHg 89%
    18:00 -9°C° 0 mm 3 mps 744 mmHg 89%
    19:00 -9°C° 0 mm 2 mps 744 mmHg 90%
    20:00 -12°C° 0 mm 2 mps 745 mmHg 91%
    21:00 -13°C° 0 mm 2 mps 745 mmHg 91%
    22:00 -11°C° 0 mm 1 mps 745 mmHg 92%
    23:00 -12°C° 0 mm 1 mps 745 mmHg 92%

    22 January, Tuesday

    Time Temperature Precipitation Wind Pressure Humidity
    00:00 -13°C° 0 mm 1 mps 745 mmHg 91%
    01:00 -13°C° 0 mm 1 mps 745 mmHg 90%
    02:00 -14°C° 0 mm 0 mps 745 mmHg 90%
    03:00 -14°C° 0 mm 1 mps 745 mmHg 89%
    04:00 -14°C° 0 mm 1 mps 745 mmHg 88%
    05:00 -16°C° 0 mm 2 mps 745 mmHg 88%
    06:00 -16°C° 0 mm 2 mps 745 mmHg 88%
    07:00 -17°C° 0 mm 2 mps 745 mmHg 88%
    08:00 -17°C° 0 mm 2 mps 745 mmHg 88%
    09:00 -16°C° 0 mm 2 mps 745 mmHg 88%
    10:00 -16°C° 0 mm 3 mps 745 mmHg 87%
    11:00 -14°C° 0 mm 3 mps 745 mmHg 86%
    12:00 -14°C° 0 mm 3 mps 744 mmHg 86%
    13:00 -13°C° 0 mm 3 mps 744 mmHg 86%
    14:00 -12°C° 0 mm 3 mps 744 mmHg 86%
    15:00 -14°C° 0 mm 3 mps 743 mmHg 87%
    16:00 -15°C° 0 mm 3 mps 743 mmHg 88%
    17:00 -16°C° 0 mm 3 mps 742 mmHg 89%
    18:00 -16°C° 0 mm 3 mps 742 mmHg 89%
    19:00 -16°C° 0 mm 3 mps 741 mmHg 89%
    20:00 -16°C° 0 mm 3 mps 741 mmHg 89%
    21:00 -17°C° 0 mm 4 mps 741 mmHg 89%
    22:00 -16°C° 0 mm 4 mps 740 mmHg 90%
    23:00 -15°C° 0 mm 4 mps 740 mmHg 91%
    Show more